星链-34342 (STARLINK-34342)

导读

STARLINK-34342是美国星链计划下发射的卫星,于2025年6月4日由美国发射升空。该卫星是SpaceX星链互联网星座的组成部分,星链系统旨在为全球范围用户提供低延迟、高速率的宽带互联网覆盖,该卫星入轨后将承担相关通信服务任务,助力星链星座组网完善全球网络覆盖能力。

Basic Information
目录编号:
64271
目录名称:
STARLINK-34342
国际标识:
2025-120R
轨道中心:
EARTH
卫星名称:
星链-34342
卫星全名:
星链-34342 (STARLINK-34342)
卫星状态:
在轨 (已飞行458 天)
发射日期:
2025-06-04 UTC
国别 :
美国 (US)
星等 :
--
Orbit Information
数据来源 国际轨道数据
星历时间: 2026-09-05T01:10:51+0800
20小时前
查看轨道信息
半长轴: 6840.816km
偏心率: 0.0001314
轨道倾角: 53.161°
近地点辐角 85.023°
升交点赤经 3.167°
平近点角 275.092°
近地点: 461.78km
远地点: 463.578km
周期: 93.847分钟
每日圈数: 15.344082
Detailed Information
固有亮度:
5
最大亮度:
2.5
卫星平台:
Starlink V1.0
覆盖范围:
全球
运营商:
太空探索技术公司
运营商所在国:
美国
制造商(研发单位):
太空探索技术公司
制造商所在国:
美国
使用方式:
暂无
Satellite Introduction
Starlink 计划是 SpaceX 推出的全球卫星互联网项目,通过发射低轨道卫星,为全球尤其是偏远地区提供高速、低延迟的互联网服务。自 2019 年起,Starlink 已部署数千颗卫星,旨在缩小全球数字鸿沟,推动互联网普及。该项目还为军事、航空等行业提供通信支持,带来广泛经济效益。
2D Orbit Map
3D Orbit Map
Orbit Altitude Analysis Chart
Orbit Inclination Analysis Chart
Orbit Comprehensive Analysis Chart
View Comprehensive Chart
Conjunction Data List
Event ID Objects TCA Miss Dist (km) Collision Risk Probability Collision Risk Index (CRI) Action
CDM_260906-123904-578606-427121
2026-09-06T
12:39:56+0000
2.192 km
极远距离
1.502078E-6 低风险 0.39
CDM_260906-163404-578606-427121
2026-09-06T
16:34:24+0000
2.276 km
极远距离
1.39074E-6 低风险 0.38
CDM_260906-093205-084106-427121
2026-09-06T
09:32:59+0000
2.748 km
极远距离
1.047079E-6 低风险 0.35